GOKTURK-1A

导读 | 豆包AI

GOKTURK-1A是土耳其于2016年12月5日发射的高分辨率地球观测卫星,由意大利厂商合作开发,运行于695公里太阳同步轨道,设计寿命7年。它搭载高分辨率成像设备,全色分辨率达0.5米,可获取高精度对地观测图像,兼具军事侦察与民用遥感价值,每年可拍摄超6万幅影像,重访周期约两天,支撑土耳其情报采集与国土监测,是土耳其航天本地化发展的重要里程碑,标志着土耳其掌握自主高分辨率对地观测能力。

基本信息
目录编号:
41875
目录名称:
GOKTURK-1A
国际标识:
2016-073A
轨道中心:
EARTH
卫星名称:
GOKTURK-1A
卫星全名:
--
卫星状态:
在轨 (已飞行3376 天)
发射日期:
2016-12-05 UTC
国别 :
土耳其 (TR)
星等 :
--
轨道信息
数据来源 国际轨道数据 AOE轨道数据
星历时间 2026-03-04T20:27:48+0800
7小时前
查看轨道信息
2026-03-03T11:00:00+0800
1天前
查看轨道信息
半长轴 7062.473km 7062.448km
偏心率 0.0001369 0.0001284
轨道倾角 98.138° 98.136°
近地点辐角 77.841° 102.128°
升交点赤经 319.768° 318.394°
平近点角 282.295° 120.070°
近地点 683.369km 683.404km
远地点 685.303km 685.218km
周期 98.445分钟 98.445分钟
每日圈数 14.627417 14.627495
详细信息
使用方式:
暂无
2D轨道图
3D轨道图
轨道高度分析图
轨道倾角分析图
轨道综合分析图
查看轨道综合分析图